Location: Grandview
(34.8900°N, 117.1058°W)
Time: 15:01:46
(UTC-07:00)

Envisat - Pass Details

Date: 14 October 2017
Orbit: 764 x 766 km, 98.2° (Epoch: 19 October)

Event Time Altitude Azimuth Distance (km) Brightness Sun altitude
Exits shadow 20:40:26 26° 353° (N) 1,477 4.6 -30.6°
Drops below altitude 10° 20:42:36 10° 350° (N) 2,305 5.7 -31.1°
Sets 20:44:54 0° 350° (N) 3,235 6.5 -31.5°
